When you browse on this site, cookies collect data to enhance your experience and personalize the content and advertising you see.
Visit our Privacy Policy to learn more. By continuing to use the site, you agree to this use of cookies and data.
  • In Hungary
  • List of Countries
  • For 7 days
  • Water Temperature
  • Weather Map
  • News
  • Weather Widgets
  • user-avatar
    Login

    Hourly Weather Krupp

    Today, 22 October, Tuesday

    Time Temperature Precipitation Wind Pressure Humidity
    00:00 +8°C° 0 mm 1 mps 762 mmHg 88%
    01:00 +6°C° 0 mm 2 mps 762 mmHg 91%
    02:00 +5°C° 0 mm 2 mps 762 mmHg 93%
    03:00 +6°C° 0 mm 2 mps 762 mmHg 93%
    04:00 +6°C° 0 mm 2 mps 762 mmHg 92%
    05:00 +6°C° 0 mm 2 mps 761 mmHg 92%
    06:00 +5°C° 0 mm 3 mps 761 mmHg 93%
    07:00 +7°C° 0 mm 3 mps 761 mmHg 93%
    08:00 +7°C° 0 mm 3 mps 760 mmHg 93%
    09:00 +7°C° 0 mm 4 mps 760 mmHg 92%
    10:00 +10°C° 0 mm 4 mps 759 mmHg 91%
    11:00 +11°C° 0 mm 4 mps 758 mmHg 89%
    12:00 +12°C° 0 mm 5 mps 758 mmHg 89%
    13:00 +12°C° 0 mm 5 mps 758 mmHg 88%
    14:00 +13°C° 0 mm 5 mps 757 mmHg 88%
    15:00 +13°C° 0 mm 5 mps 757 mmHg 87%
    16:00 +13°C° 0 mm 5 mps 757 mmHg 86%
    17:00 +12°C° 0 mm 5 mps 756 mmHg 86%
    18:00 +12°C° 0 mm 5 mps 757 mmHg 86%
    19:00 +12°C° 0 mm 5 mps 757 mmHg 86%
    20:00 +10°C° 0 mm 5 mps 757 mmHg 86%
    21:00 +10°C° 0 mm 5 mps 757 mmHg 86%
    22:00 +11°C° 0 mm 4 mps 756 mmHg 86%
    23:00 +12°C° 0 mm 4 mps 756 mmHg 85%

    Tomorrow, 23 October, Wednesday

    Time Temperature Precipitation Wind Pressure Humidity
    00:00 +11°C° 0 mm 4 mps 756 mmHg 86%
    01:00 +11°C° 0 mm 4 mps 756 mmHg 86%
    02:00 +11°C° 0 mm 4 mps 757 mmHg 86%
    03:00 +11°C° 0 mm 4 mps 757 mmHg 87%
    04:00 +10°C° 0 mm 4 mps 757 mmHg 88%
    05:00 +9°C° 0 mm 5 mps 757 mmHg 89%
    06:00 +10°C° 0 mm 4 mps 757 mmHg 89%
    07:00 +8°C° 0 mm 4 mps 757 mmHg 89%
    08:00 +8°C° 0 mm 4 mps 757 mmHg 89%
    09:00 +10°C° 0 mm 4 mps 757 mmHg 84%
    10:00 +11°C° 0 mm 4 mps 758 mmHg 79%
    11:00 +11°C° 0 mm 4 mps 758 mmHg 74%
    12:00 +11°C° 0 mm 4 mps 758 mmHg 74%
    13:00 +11°C° 0 mm 4 mps 758 mmHg 75%
    14:00 +11°C° 0 mm 4 mps 758 mmHg 75%
    15:00 +11°C° 0 mm 4 mps 758 mmHg 76%
    16:00 +10°C° 0 mm 3 mps 758 mmHg 77%
    17:00 +10°C° 0 mm 3 mps 758 mmHg 78%
    18:00 +10°C° 0 mm 3 mps 759 mmHg 78%
    19:00 +9°C° 0 mm 3 mps 759 mmHg 78%
    20:00 +9°C° 0 mm 3 mps 759 mmHg 79%
    21:00 +9°C° 0 mm 3 mps 759 mmHg 79%
    22:00 +9°C° 0 mm 3 mps 759 mmHg 80%
    23:00 +9°C° 0 mm 2 mps 759 mmHg 81%

    Day after tomorrow, 24 October, Thursday

    Time Temperature Precipitation Wind Pressure Humidity
    00:00 +9°C° 0 mm 2 mps 760 mmHg 80%
    01:00 +9°C° 0 mm 2 mps 760 mmHg 79%
    02:00 +9°C° 0 mm 3 mps 760 mmHg 79%
    03:00 +9°C° 0 mm 2 mps 760 mmHg 78%
    04:00 +9°C° 0 mm 2 mps 760 mmHg 78%
    05:00 +8°C° 0 mm 2 mps 760 mmHg 78%
    06:00 +8°C° 0 mm 2 mps 760 mmHg 77%
    07:00 +8°C° 0 mm 2 mps 760 mmHg 77%
    08:00 +8°C° 0 mm 2 mps 760 mmHg 77%
    09:00 +9°C° 0 mm 3 mps 760 mmHg 76%
    10:00 +9°C° 0 mm 3 mps 760 mmHg 74%
    11:00 +9°C° 0 mm 3 mps 760 mmHg 73%
    12:00 +9°C° 0 mm 3 mps 760 mmHg 73%
    13:00 +9°C° 0 mm 3 mps 761 mmHg 73%
    14:00 +9°C° 0 mm 3 mps 761 mmHg 74%
    15:00 +9°C° 0 mm 3 mps 761 mmHg 75%
    16:00 +9°C° 0 mm 2 mps 761 mmHg 77%
    17:00 +9°C° 0 mm 2 mps 761 mmHg 78%
    18:00 +8°C° 0 mm 2 mps 761 mmHg 80%
    19:00 +8°C° 0 mm 2 mps 761 mmHg 82%
    20:00 +8°C° 0 mm 2 mps 761 mmHg 84%
    21:00 +7°C° 0 mm 2 mps 761 mmHg 86%
    22:00 +7°C° 0 mm 2 mps 761 mmHg 89%
    23:00 +5°C° 0 mm 3 mps 761 mmHg 91%

    25 October, Friday

    Time Temperature Precipitation Wind Pressure Humidity
    00:00 +6°C° 0 mm 2 mps 761 mmHg 92%
    01:00 +6°C° 0 mm 2 mps 761 mmHg 93%
    02:00 +6°C° 0 mm 2 mps 761 mmHg 95%
    03:00 +5°C° 0 mm 3 mps 760 mmHg 95%
    04:00 +5°C° 0 mm 3 mps 760 mmHg 95%
    05:00 +5°C° 0 mm 3 mps 759 mmHg 95%
    06:00 +5°C° 0 mm 4 mps 759 mmHg 93%
    07:00 +5°C° 0 mm 4 mps 758 mmHg 92%
    08:00 +5°C° 0 mm 5 mps 758 mmHg 90%
    09:00 +7°C° 0 mm 5 mps 757 mmHg 85%
    10:00 +8°C° 0 mm 5 mps 757 mmHg 79%
    11:00 +9°C° 0 mm 5 mps 756 mmHg 73%
    12:00 +10°C° 0 mm 6 mps 756 mmHg 73%
    13:00 +11°C° 0 mm 6 mps 755 mmHg 73%
    14:00 +13°C° 0 mm 6 mps 754 mmHg 73%
    15:00 +13°C° 0 mm 5 mps 754 mmHg 77%
    16:00 +12°C° 0 mm 5 mps 754 mmHg 82%
    17:00 +12°C° 0 mm 4 mps 754 mmHg 87%
    18:00 +12°C° 0 mm 4 mps 754 mmHg 87%
    19:00 +12°C° 0 mm 4 mps 754 mmHg 88%
    20:00 +12°C° 0 mm 4 mps 754 mmHg 88%
    21:00 +12°C° 0 mm 4 mps 754 mmHg 86%
    22:00 +12°C° 0 mm 5 mps 754 mmHg 83%
    23:00 +12°C° 0 mm 5 mps 754 mmHg 81%

    26 October, Saturday

    Time Temperature Precipitation Wind Pressure Humidity
    00:00 +12°C° 0 mm 5 mps 754 mmHg 81%
    01:00 +10°C° 0 mm 5 mps 754 mmHg 82%
    02:00 +10°C° 0 mm 5 mps 754 mmHg 82%
    03:00 +9°C° 0 mm 5 mps 754 mmHg 83%
    04:00 +9°C° 0 mm 5 mps 754 mmHg 84%
    05:00 +8°C° 0 mm 4 mps 754 mmHg 84%
    06:00 +8°C° 0 mm 5 mps 754 mmHg 85%
    07:00 +8°C° 0 mm 5 mps 753 mmHg 85%
    08:00 +8°C° 0 mm 5 mps 753 mmHg 86%
    09:00 +9°C° 0 mm 6 mps 752 mmHg 82%
    10:00 +10°C° 0 mm 6 mps 752 mmHg 78%
    11:00 +10°C° 0 mm 6 mps 751 mmHg 74%
    12:00 +11°C° 0 mm 7 mps 750 mmHg 72%
    13:00 +12°C° 0 mm 7 mps 749 mmHg 70%
    14:00 +12°C° 0 mm 8 mps 748 mmHg 67%
    15:00 +12°C° 0.3 mm 8 mps 747 mmHg 71%
    16:00 +12°C° 0.3 mm 8 mps 747 mmHg 75%
    17:00 +11°C° 0.3 mm 8 mps 747 mmHg 79%
    18:00 +10°C° 0.1 mm 8 mps 747 mmHg 76%
    19:00 +9°C° 0.1 mm 7 mps 747 mmHg 72%
    20:00 +8°C° 0.1 mm 6 mps 747 mmHg 69%
    21:00 +8°C° 0 mm 6 mps 747 mmHg 69%
    22:00 +7°C° 0 mm 6 mps 748 mmHg 70%
    23:00 +5°C° 0 mm 6 mps 748 mmHg 71%

    27 October, Sunday

    Time Temperature Precipitation Wind Pressure Humidity
    00:00 +5°C° 0 mm 6 mps 748 mmHg 72%
    01:00 +5°C° 0 mm 6 mps 748 mmHg 74%
    02:00 +4°C° 0 mm 6 mps 748 mmHg 75%
    03:00 +4°C° 0 mm 6 mps 748 mmHg 76%
    04:00 +4°C° 0 mm 6 mps 748 mmHg 76%
    05:00 +4°C° 0 mm 6 mps 748 mmHg 77%
    06:00 +4°C° 0 mm 6 mps 748 mmHg 76%
    07:00 +4°C° 0 mm 6 mps 748 mmHg 76%
    08:00 +4°C° 0 mm 6 mps 748 mmHg 76%
    09:00 +5°C° 0.1 mm 7 mps 748 mmHg 73%
    10:00 +5°C° 0.1 mm 7 mps 748 mmHg 69%
    11:00 +6°C° 0.1 mm 7 mps 748 mmHg 66%
    12:00 +6°C° 0.1 mm 7 mps 747 mmHg 64%
    13:00 +7°C° 0.1 mm 6 mps 747 mmHg 62%
    14:00 +7°C° 0.1 mm 6 mps 747 mmHg 60%
    15:00 +5°C° 0 mm 6 mps 747 mmHg 64%
    16:00 +6°C° 0 mm 5 mps 747 mmHg 67%
    17:00 +5°C° 0 mm 5 mps 747 mmHg 70%
    18:00 +5°C° 0 mm 5 mps 747 mmHg 71%
    19:00 +5°C° 0 mm 5 mps 746 mmHg 72%
    20:00 +3°C° 0 mm 5 mps 746 mmHg 73%
    21:00 +4°C° 0 mm 6 mps 746 mmHg 75%
    22:00 +4°C° 0 mm 6 mps 746 mmHg 77%
    23:00 +5°C° 0 mm 6 mps 745 mmHg 79%

    28 October, Monday

    Time Temperature Precipitation Wind Pressure Humidity
    00:00 +5°C° 0.1 mm 6 mps 745 mmHg 80%
    01:00 +4°C° 0.1 mm 6 mps 745 mmHg 81%
    02:00 +4°C° 0.1 mm 6 mps 745 mmHg 82%
    03:00 +4°C° 0 mm 6 mps 746 mmHg 82%
    04:00 +3°C° 0 mm 5 mps 746 mmHg 82%
    05:00 +3°C° 0 mm 5 mps 746 mmHg 81%
    06:00 +2°C° 0 mm 5 mps 746 mmHg 80%
    07:00 +2°C° 0 mm 5 mps 747 mmHg 79%
    08:00 +2°C° 0 mm 5 mps 747 mmHg 77%
    09:00 +3°C° 0 mm 6 mps 747 mmHg 71%
    10:00 +4°C° 0 mm 6 mps 747 mmHg 65%
    11:00 +5°C° 0 mm 7 mps 747 mmHg 59%
    12:00 +5°C° 0.1 mm 7 mps 747 mmHg 58%
    13:00 +5°C° 0.1 mm 6 mps 747 mmHg 57%
    14:00 +5°C° 0.1 mm 6 mps 747 mmHg 57%
    15:00 +5°C° 0 mm 6 mps 747 mmHg 61%
    16:00 +5°C° 0 mm 5 mps 747 mmHg 64%
    17:00 +3°C° 0 mm 5 mps 747 mmHg 68%
    18:00 +3°C° 0 mm 5 mps 747 mmHg 73%
    19:00 +2°C° 0 mm 5 mps 747 mmHg 77%
    20:00 +2°C° 0 mm 5 mps 747 mmHg 82%
    21:00 +2°C° 0.1 mm 5 mps 747 mmHg 85%
    22:00 +1°C° 0.1 mm 4 mps 747 mmHg 88%
    23:00 +1°C° 0.1 mm 4 mps 747 mmHg 92%
    Show more